This is the latest recevied weather packets stored in our database for station/object AK4NG. If no packets are shown the sender has not sent any weather packets the latest 10 day(s).
| Time | Temp. | Humidity | Pressure | Rain* | Wind** | Luminosity | Snow |
|---|---|---|---|---|---|---|---|
| 1777852341 | 20.56° C | 43% | 1018.3 hPa | 0 mm | - | 32 W/m² | - |
| 1777852039 | 21.11° C | 42% | 1018.6 hPa | 0 mm | - | 37 W/m² | - |
| 1777851736 | 21.67° C | 38% | 1018.4 hPa | 0 mm | - | 44 W/m² | - |
| 1777851433 | 21.67° C | 37% | 1018.1 hPa | 0 mm | - | 51 W/m² | - |
| 1777851129 | 21.67° C | 38% | 1018.5 hPa | 0 mm | - | 59 W/m² | - |
| 1777850826 | 21.67° C | 35% | 1018.5 hPa | 0 mm | - | 69 W/m² | - |
| 1777850523 | 21.67° C | 35% | 1018.4 hPa | 0 mm | - | 79 W/m² | - |
| 1777850221 | 21.67° C | 34% | 1018.3 hPa | 0 mm | - | 88 W/m² | - |
| 1777849917 | 22.22° C | 32% | 1018.5 hPa | 0 mm | - | 101 W/m² | - |
| 1777849614 | 22.22° C | 32% | 1018.6 hPa | 0 mm | - | 114 W/m² | - |
| 1777849311 | 22.22° C | 33% | 1018.5 hPa | 0 mm | - | 128 W/m² | - |
| 1777849008 | 22.78° C | 32% | 1018.6 hPa | 0 mm | - | 142 W/m² | - |
| 1777848708 | 22.78° C | 35% | 1018.5 hPa | 0 mm | - | 158 W/m² | - |
| 1777848406 | 22.78° C | 34% | 1018.4 hPa | 0 mm | - | 174 W/m² | - |
| 1777848104 | 23.33° C | 32% | 1018.5 hPa | 0 mm | - | 189 W/m² | - |
| 1777847801 | 23.33° C | 31% | 1018.4 hPa | 0 mm | - | 204 W/m² | - |
| 1777847498 | 22.78° C | 30% | 1018.3 hPa | 0 mm | - | 219 W/m² | - |
| 1777847195 | 22.78° C | 35% | 1018.5 hPa | 0 mm | - | 238 W/m² | - |
| 1777846892 | 22.78° C | 32% | 1018.6 hPa | 0 mm | - | 255 W/m² | - |
| 1777846591 | 22.78° C | 34% | 1018.6 hPa | 0 mm | - | 274 W/m² | - |
| 1777846288 | 22.78° C | 34% | 1018.7 hPa | 0 mm | - | 293 W/m² | - |
| 1777845984 | 23.33° C | 29% | 1018.6 hPa | 0 mm | - | 311 W/m² | - |
| 1777845681 | 22.78° C | 31% | 1018.5 hPa | 0 mm | - | 327 W/m² | - |
| 1777845378 | 23.33° C | 32% | 1018.8 hPa | 0 mm | - | 347 W/m² | - |
| 1777845075 | 23.33° C | 31% | 1018.5 hPa | 0 mm | - | 364 W/m² | - |
* Rain latest hour (hover to see other rain measurements)
** Current wind speed in m/s (hover to see current wind gust speed)